Regional Weather Roundup
Issued by NWS Midland/Odessa, TX

Home | Current Version | Previous Version | Text Only | Print | Product List | Glossary On
Versions: 1 2 3 4 5 6 7 8 9 10 11 12 13 14 15 16 17 18 19 20 21 22 23 24 25 26 27 28 29 30 31 32 33 34 35 36 37 38 39 40 41 42 43 44 45 46 47 48 49 50
000
ASUS44 KMAF 240410
RWRMAF
MIDLAND AREA WEATHER ROUNDUP
NATIONAL WEATHER SERVICE MIDLAND TX
1000 PM CST FRI FEB 23 2018

...IN SOUTHWEST TEXAS AND SOUTHEAST NEW MEXICO...

CITY           SKY/WX    TMP DP  RH WIND       PRES   REMARKS
ALPINE         CLEAR     55  21  26 SW7       30.02S
ANDREWS        FAIR      46  46 100 SE7       29.93F
ARTESIA        CLEAR     48  12  23 SW12      29.88S
BIG SPRING     CLOUDY    46  46  99 E8        29.98F VSB 3/4
CARLSBAD       CLEAR     51  21  30 S12       29.87F
DRYDEN           N/A     56  53  90 E13       29.97S
FORT STOCKTON  PTCLDY    54  46  74 SE20G26   29.91F
GUAD PASS      CLEAR     53   5  14 SW12G20   29.97
HOBBS          CLEAR     48  36  61 SE10      29.90F
LAMESA         LGT RAIN  45  45 100 E20       29.95F VSB 1/4 WCI  37
MARFA          CLOUDY    42  13  30 E3        29.99S
MIDLAND AIRPK    N/A     53  49  86 SE14      29.94F
MIDLAND INTL   CLEAR     52  47  83 SE14      29.93F
ODESSA         CLEAR     52  48  86 SE15      29.93F
PECOS          CLEAR     56  38  52 E12       29.88F
PRESIDIO       FAIR      67  24  19 NE3       29.90S
SEMINOLE       CLEAR     46  43  89 SE6       29.93F
SNYDER         CLOUDY    41  41 100 E9        29.99F FOG     WCI  36
WINK           CLEAR     54  41  61 SE13      29.88F
$$
...OTHER STATIONS IN TEXAS...

CITY           SKY/WX    TMP DP  RH WIND       PRES   REMARKS
ABILENE        CLOUDY    41  41 100 E5        30.02F WCI  38
AMARILLO       CLOUDY    34  33  96 SE18      29.93F FOG     WCI  23
AUSTIN         CLOUDY    59  59 100 CALM      30.01R
BROWNSVILLE    CLOUDY    75  72  90 SE21G30   29.97F
CORPUS CHRISTI CLOUDY    71  71 100 SE17      29.98F
DALLAS FTW     CLOUDY    49  47  93 NW8       30.03F
DEL RIO        CLOUDY    59  59 100 S5        29.97S
EL PASO        CLEAR     61   3  10 W22G35    29.92S
HOUSTON INT    MOCLDY    71  70  96 SE10      30.04F
LUBBOCK        DRZL/FOG  40  40 100 SE14      29.94F VSB 1/2 WCI  32
SAN ANGELO     CLOUDY    50  47  89 NE6       29.99F
SAN ANTONIO    CLOUDY    68  63  84 SE7       30.00F
WACO           CLOUDY    54  53  97 N5        30.04S FOG
WICHITA FALLS  CLOUDY    33  32  96 NE10      30.09F FOG     WCI  25
$$
...OTHER LOCATIONS IN NEW MEXICO...

CITY           SKY/WX    TMP DP  RH WIND       PRES   REMARKS
ALAMOGORDO     CLEAR     52  14  22 S15       29.91S
ALBUQUERQUE    PTCLDY    44   6  21 W10       29.89R WCI  39
CANNON AFB     CLEAR     41  29  62 SE7       29.89F WCI  37
CLOVIS         CLEAR     42  35  76 S14       29.89F WCI  35
HOLLOMAN AFB   CLEAR     47  15  28 SE9       29.92R
ROSWELL        CLEAR     49  11  21 SW9       29.86F
RUIDOSO        NOT AVBL
SANTA FE       CLEAR     35  13  40 W5        29.85R WCI  31
TRUTH OR CONSE CLEAR     51  14  22 SW12      29.87R
TUCUMCARI      CLEAR     46   7  20 SW14      29.81R WCI  40
$$




USA.gov is the U.S. government's official web portal to all federal, state and local government web resources and services.